Time,TemperatureF,DewpointF,PressureIn,WindDirection,WindDirectionDegrees,WindSpeedMPH,WindSpeedGustMPH,Humidity,HourlyPrecipIn,Conditions,Clouds,dailyrainin,SoftwareType,DateUTC
2015-03-30 00:03:00,43.9,34.0,29.96,SW,224,10.0,10.0,68,0.00,,,0.00,Wunderground v.1.15,2015-03-30 04:03:00,
2015-03-30 00:08:00,43.9,34.0,29.95,WSW,240,6.0,10.0,68,0.00,,,0.00,Wunderground v.1.15,2015-03-30 04:08:00,
2015-03-30 00:14:00,43.9,33.6,29.95,SSW,213,2.0,8.0,67,0.00,,,0.00,Wunderground v.1.15,2015-03-30 04:14:00,
2015-03-30 00:19:00,44.1,33.8,29.95,WSW,248,0.0,8.0,67,0.00,,,0.00,Wunderground v.1.15,2015-03-30 04:19:00,
2015-03-30 00:25:00,44.3,34.0,29.94,SW,222,8.0,8.0,67,0.00,,,0.00,Wunderground v.1.15,2015-03-30 04:25:00,
2015-03-30 00:30:00,44.9,34.6,29.94,SW,219,5.0,6.0,67,0.00,,,0.00,Wunderground v.1.15,2015-03-30 04:30:00,
2015-03-30 00:36:00,45.4,35.5,29.94,WSW,238,6.0,7.0,68,0.00,,,0.00,Wunderground v.1.15,2015-03-30 04:36:00,
2015-03-30 00:41:00,45.5,35.5,29.94,SW,234,3.0,4.0,68,0.00,,,0.00,Wunderground v.1.15,2015-03-30 04:41:00,
2015-03-30 00:47:00,45.8,35.8,29.94,SSW,202,5.0,10.0,68,0.00,,,0.00,Wunderground v.1.15,2015-03-30 04:47:00,
2015-03-30 00:53:00,46.0,36.0,29.94,SW,230,7.0,9.0,68,0.00,,,0.00,Wunderground v.1.15,2015-03-30 04:53:00,
2015-03-30 00:58:00,45.8,36.2,29.94,WSW,245,1.0,9.0,69,0.00,,,0.00,Wunderground v.1.15,2015-03-30 04:58:00,
2015-03-30 01:04:00,45.7,36.5,29.94,West,273,5.0,8.0,70,0.00,,,0.00,Wunderground v.1.15,2015-03-30 05:04:00,
2015-03-30 01:10:00,45.4,36.9,29.94,SW,220,6.0,6.0,72,0.00,,,0.00,Wunderground v.1.15,2015-03-30 05:10:00,
2015-03-30 01:15:00,45.1,37.6,29.94,SW,229,5.0,7.0,75,0.00,,,0.00,Wunderground v.1.15,2015-03-30 05:15:00,
2015-03-30 01:21:00,44.6,37.8,29.94,WSW,248,2.0,6.0,77,0.00,,,0.00,Wunderground v.1.15,2015-03-30 05:21:00,
2015-03-30 01:27:00,44.5,38.4,29.94,WSW,254,5.0,6.0,79,0.00,,,0.00,Wunderground v.1.15,2015-03-30 05:27:00,
2015-03-30 01:32:00,44.3,38.2,29.94,SW,219,9.0,9.0,79,0.00,,,0.00,Wunderground v.1.15,2015-03-30 05:32:00,
2015-03-30 01:38:00,44.3,38.5,29.93,SW,232,2.0,9.0,80,0.00,,,0.00,Wunderground v.1.15,2015-03-30 05:38:00,
2015-03-30 01:43:00,44.3,38.5,29.93,SW,222,8.0,8.0,80,0.00,,,0.00,Wunderground v.1.15,2015-03-30 05:43:00,
2015-03-30 01:49:00,44.5,38.7,29.93,WSW,248,8.0,8.0,80,0.00,,,0.00,Wunderground v.1.15,2015-03-30 05:49:00,
2015-03-30 01:55:00,44.6,38.5,29.93,SW,224,6.0,9.0,79,0.00,,,0.00,Wunderground v.1.15,2015-03-30 05:55:00,
2015-03-30 02:00:00,44.8,38.7,29.93,WSW,257,5.0,5.0,79,0.00,,,0.00,Wunderground v.1.15,2015-03-30 06:00:00,
2015-03-30 02:05:00,44.8,38.7,29.93,West,259,1.0,8.0,79,0.00,,,0.00,Wunderground v.1.15,2015-03-30 06:05:00,
2015-03-30 02:10:00,44.9,38.8,29.93,WSW,241,5.0,7.0,79,0.00,,,0.00,Wunderground v.1.15,2015-03-30 06:10:00,
2015-03-30 02:15:00,44.9,39.1,29.93,SSW,211,7.0,10.0,80,0.00,,,0.00,Wunderground v.1.15,2015-03-30 06:15:00,
2015-03-30 02:20:00,45.1,39.3,29.93,West,278,6.0,7.0,80,0.00,,,0.00,Wunderground v.1.15,2015-03-30 06:20:00,
2015-03-30 02:25:00,45.1,39.3,29.93,WSW,252,0.0,8.0,80,0.00,,,0.00,Wunderground v.1.15,2015-03-30 06:25:00,
2015-03-30 02:30:00,45.2,39.4,29.93,West,261,0.0,5.0,80,0.00,,,0.00,Wunderground v.1.15,2015-03-30 06:30:00,
2015-03-30 02:35:00,45.4,39.6,29.93,WNW,285,1.0,11.0,80,0.00,,,0.00,Wunderground v.1.15,2015-03-30 06:35:00,
2015-03-30 02:40:00,45.7,39.9,29.93,West,271,4.0,5.0,80,0.00,,,0.00,Wunderground v.1.15,2015-03-30 06:40:00,
2015-03-30 02:45:00,45.8,39.7,29.93,WSW,255,4.0,8.0,79,0.00,,,0.00,Wunderground v.1.15,2015-03-30 06:45:00,
2015-03-30 02:50:00,45.8,39.7,29.94,West,269,3.0,4.0,79,0.00,,,0.00,Wunderground v.1.15,2015-03-30 06:50:00,
2015-03-30 02:55:00,45.8,39.7,29.94,West,265,5.0,10.0,79,0.00,,,0.00,Wunderground v.1.15,2015-03-30 06:55:00,
2015-03-30 03:00:00,46.0,39.9,29.94,WSW,252,1.0,7.0,79,0.00,,,0.00,Wunderground v.1.15,2015-03-30 07:00:00,
2015-03-30 03:05:00,46.0,39.9,29.94,WNW,282,1.0,13.0,79,0.00,,,0.00,Wunderground v.1.15,2015-03-30 07:05:00,
2015-03-30 03:10:00,46.0,39.5,29.94,West,262,11.0,11.0,78,0.00,,,0.00,Wunderground v.1.15,2015-03-30 07:10:00,
2015-03-30 03:15:00,46.0,39.2,29.94,WSW,248,5.0,19.0,77,0.00,,,0.00,Wunderground v.1.15,2015-03-30 07:15:00,
2015-03-30 03:20:00,45.7,38.9,29.94,WNW,294,4.0,6.0,77,0.00,,,0.00,Wunderground v.1.15,2015-03-30 07:20:00,
2015-03-30 03:25:00,45.4,38.6,29.94,West,261,4.0,12.0,77,0.00,,,0.00,Wunderground v.1.15,2015-03-30 07:25:00,
2015-03-30 03:30:00,45.2,38.4,29.94,SW,234,0.0,4.0,77,0.00,,,0.00,Wunderground v.1.15,2015-03-30 07:30:00,
2015-03-30 03:35:00,44.9,38.1,29.95,West,269,7.0,11.0,77,0.00,,,0.00,Wunderground v.1.15,2015-03-30 07:35:00,
2015-03-30 03:40:00,44.8,38.0,29.95,WSW,252,5.0,5.0,77,0.00,,,0.00,Wunderground v.1.15,2015-03-30 07:40:00,
2015-03-30 03:45:00,44.5,37.7,29.95,WNW,288,2.0,10.0,77,0.00,,,0.00,Wunderground v.1.15,2015-03-30 07:45:00,
2015-03-30 03:50:00,44.3,37.5,29.95,WSW,248,9.0,11.0,77,0.00,,,0.00,Wunderground v.1.15,2015-03-30 07:50:00,
2015-03-30 03:55:00,44.2,37.4,29.95,WSW,248,6.0,12.0,77,0.00,,,0.00,Wunderground v.1.15,2015-03-30 07:55:00,
2015-03-30 04:00:00,44.1,37.3,29.95,WNW,282,5.0,7.0,77,0.00,,,0.00,Wunderground v.1.15,2015-03-30 08:00:00,
2015-03-30 04:05:00,43.9,37.2,29.95,West,280,3.0,11.0,77,0.00,,,0.00,Wunderground v.1.15,2015-03-30 08:05:00,
2015-03-30 04:10:00,43.8,37.1,29.95,West,269,4.0,13.0,77,0.00,,,0.00,Wunderground v.1.15,2015-03-30 08:10:00,
2015-03-30 04:15:00,43.6,36.9,29.95,West,259,3.0,13.0,77,0.00,,,0.00,Wunderground v.1.15,2015-03-30 08:15:00,
2015-03-30 04:20:00,43.5,37.1,29.95,NW,319,1.0,6.0,78,0.00,,,0.00,Wunderground v.1.15,2015-03-30 08:20:00,
2015-03-30 04:25:00,43.3,36.6,29.95,West,268,4.0,7.0,77,0.00,,,0.00,Wunderground v.1.15,2015-03-30 08:25:00,
2015-03-30 04:30:00,43.2,36.5,29.95,West,271,5.0,5.0,77,0.00,,,0.00,Wunderground v.1.15,2015-03-30 08:30:00,
2015-03-30 04:35:00,42.9,36.2,29.95,WSW,244,6.0,6.0,77,0.00,,,0.00,Wunderground v.1.15,2015-03-30 08:35:00,
2015-03-30 04:40:00,42.8,36.1,29.95,West,269,0.0,2.0,77,0.00,,,0.00,Wunderground v.1.15,2015-03-30 08:40:00,
2015-03-30 04:46:00,42.5,35.8,29.95,WNW,300,2.0,9.0,77,0.00,,,0.00,Wunderground v.1.15,2015-03-30 08:46:00,
2015-03-30 04:51:00,42.3,35.6,29.95,WNW,290,2.0,8.0,77,0.00,,,0.00,Wunderground v.1.15,2015-03-30 08:51:00,
2015-03-30 04:56:00,42.2,34.8,29.95,West,275,3.0,9.0,75,0.00,,,0.00,Wunderground v.1.15,2015-03-30 08:56:00,
2015-03-30 05:01:00,42.1,34.4,29.95,WNW,288,1.0,7.0,74,0.00,,,0.00,Wunderground v.1.15,2015-03-30 09:01:00,
2015-03-30 05:06:00,41.9,34.6,29.95,West,272,2.0,7.0,75,0.00,,,0.00,Wunderground v.1.15,2015-03-30 09:06:00,
2015-03-30 05:11:00,41.6,34.3,29.95,West,271,0.0,1.0,75,0.00,,,0.00,Wunderground v.1.15,2015-03-30 09:11:00,
2015-03-30 05:16:00,41.5,34.2,29.95,West,265,0.0,6.0,75,0.00,,,0.00,Wunderground v.1.15,2015-03-30 09:16:00,
2015-03-30 05:21:00,41.3,34.0,29.96,WNW,288,6.0,6.0,75,0.00,,,0.00,Wunderground v.1.15,2015-03-30 09:21:00,
2015-03-30 05:26:00,41.2,33.9,29.96,West,281,1.0,6.0,75,0.00,,,0.00,Wunderground v.1.15,2015-03-30 09:26:00,
2015-03-30 05:31:00,41.1,33.8,29.96,West,279,2.0,2.0,75,0.00,,,0.00,Wunderground v.1.15,2015-03-30 09:31:00,
2015-03-30 05:36:00,40.9,33.6,29.96,WSW,237,1.0,5.0,75,0.00,,,0.00,Wunderground v.1.15,2015-03-30 09:36:00,
2015-03-30 05:41:00,40.8,33.5,29.96,WSW,240,0.0,2.0,75,0.00,,,0.00,Wunderground v.1.15,2015-03-30 09:41:00,
2015-03-30 05:46:00,40.6,33.3,29.96,West,271,0.0,8.0,75,0.00,,,0.00,Wunderground v.1.15,2015-03-30 09:46:00,
2015-03-30 05:51:00,40.5,33.2,29.96,WNW,296,0.0,1.0,75,0.00,,,0.00,Wunderground v.1.15,2015-03-30 09:51:00,
2015-03-30 05:56:00,40.2,32.9,29.96,WNW,294,0.0,2.0,75,0.00,,,0.00,Wunderground v.1.15,2015-03-30 09:56:00,
2015-03-30 06:01:00,40.1,33.1,29.96,West,260,0.0,1.0,76,0.00,,,0.00,Wunderground v.1.15,2015-03-30 10:01:00,
2015-03-30 06:06:00,39.9,32.9,29.97,West,268,0.0,5.0,76,0.00,,,0.00,Wunderground v.1.15,2015-03-30 10:06:00,
2015-03-30 06:11:00,39.8,32.8,29.97,West,268,1.0,2.0,76,0.00,,,0.00,Wunderground v.1.15,2015-03-30 10:11:00,
2015-03-30 06:16:00,39.6,33.0,29.97,NW,313,1.0,5.0,77,0.00,,,0.00,Wunderground v.1.15,2015-03-30 10:16:00,
2015-03-30 06:21:00,39.5,32.9,29.97,West,266,0.0,1.0,77,0.00,,,0.00,Wunderground v.1.15,2015-03-30 10:21:00,
2015-03-30 06:26:00,39.3,32.7,29.97,NW,319,0.0,5.0,77,0.00,,,0.00,Wunderground v.1.15,2015-03-30 10:26:00,
2015-03-30 06:31:00,39.2,32.6,29.97,NW,319,0.0,1.0,77,0.00,,,0.00,Wunderground v.1.15,2015-03-30 10:31:00,
2015-03-30 06:36:00,39.2,32.3,29.98,West,279,0.0,4.0,76,0.00,,,0.00,Wunderground v.1.15,2015-03-30 10:36:00,
2015-03-30 06:41:00,39.1,32.2,29.98,West,277,0.0,0.0,76,0.00,,,0.00,Wunderground v.1.15,2015-03-30 10:41:00,
2015-03-30 06:46:00,38.9,32.0,29.98,West,281,0.0,4.0,76,0.00,,,0.00,Wunderground v.1.15,2015-03-30 10:46:00,
2015-03-30 06:51:00,38.8,31.9,29.99,North,5,0.0,3.0,76,0.00,,,0.00,Wunderground v.1.15,2015-03-30 10:51:00,
2015-03-30 06:56:00,38.8,31.9,29.99,North,5,0.0,3.0,76,0.00,,,0.00,Wunderground v.1.15,2015-03-30 10:56:00,
2015-03-30 07:01:00,38.6,31.7,29.99,WSW,252,0.0,2.0,76,0.00,,,0.00,Wunderground v.1.15,2015-03-30 11:01:00,
2015-03-30 07:06:00,38.5,31.6,30.00,WSW,252,0.0,3.0,76,0.00,,,0.00,Wunderground v.1.15,2015-03-30 11:06:00,
2015-03-30 07:11:00,38.5,31.6,30.00,WSW,252,0.0,0.0,76,0.00,,,0.00,Wunderground v.1.15,2015-03-30 11:11:00,
2015-03-30 07:16:00,38.2,31.6,30.00,WSW,252,0.0,0.0,77,0.00,,,0.00,Wunderground v.1.15,2015-03-30 11:16:00,
2015-03-30 07:21:00,38.0,31.4,30.00,WSW,252,0.0,0.0,77,0.00,,,0.00,Wunderground v.1.15,2015-03-30 11:21:00,
2015-03-30 07:26:00,37.8,31.2,30.00,WSW,252,0.0,0.0,77,0.00,,,0.00,Wunderground v.1.15,2015-03-30 11:26:00,
2015-03-30 07:31:00,37.5,31.3,30.00,WSW,252,0.0,0.0,78,0.00,,,0.00,Wunderground v.1.15,2015-03-30 11:31:00,